Theta_e
297 284 281 280 282 284 285 285 286 287 287 287 288 286 283 282 282 285 285 286 287 284 282 283 283 282 283 283 285 286 287 287 286 286 287 287 287 288 287 287 288 288 289 293 294 294 295 295 292 293 293 292 291 291 291 291 292 292 292 291 291 292 292 292 291 291 291 290 290 290 290 290 291 292 292 292 292 292 292 292 291 291 290 290 289 290
295 283 282 284 285 285 286 286 286 287 288 286 286 286 282 284 279 284 284 286 287 283 282 284 283 283 283 284 285 286 286 285 286 286 286 286 286 287 287 287 288 288 292 292 291 291 292 292 294 293 292 293 290 291 291 291 291 291 292 291 291 291 292 292 292 291 291 291 290 290 290 290 290 290 290 290 291 291 293 291 290 290 289 289 288 288
284 280 284 287 288 287 287 287 287 286 287 288 285 284 282 281 284 284 286 287 287 285 281 283 282 282 283 284 285 285 286 286 286 286 286 286 287 287 287 287 288 288 288 288 289 291 290 293 293 292 292 291 291 291 290 291 291 291 291 291 291 291 291 292 293 292 291 291 291 291 291 290 289 291 291 291 291 292 290 290 290 289 288 287 286 286
281 283 285 287 288 286 288 287 287 288 287 284 284 281 278 283 281 278 284 285 286 283 281 283 281 282 283 284 285 286 286 287 289 289 289 290 286 286 286 287 287 287 287 287 288 288 289 290 290 290 290 290 291 290 290 291 290 291 292 290 291 291 291 291 292 295 292 293 293 292 292 291 291 290 291 291 290 289 289 288 288 287 287 286 285 285
281 286 288 287 287 287 286 285 284 284 283 283 283 281 279 280 281 281 281 284 285 286 286 283 281 281 281 281 282 284 286 287 287 287 287 287 288 289 290 289 290 288 287 287 287 288 288 289 289 289 290 290 290 290 290 291 290 292 290 291 291 291 291 291 293 292 292 292 291 291 290 290 290 289 288 288 287 288 288 288 286 285 286 285 284 284
284 287 289 287 289 289 287 283 283 281 281 279 280 282 282 282 281 283 284 282 279 278 283 282 275 276 280 281 281 282 283 283 284 284 285 286 287 287 286 287 289 291 289 288 288 288 288 289 289 290 290 290 289 290 291 291 291 290 290 291 291 291 291 291 292 293 292 290 289 288 287 286 286 285 286 285 285 285 285 284 285 284 284 284 283 283
286 289 289 287 285 287 286 282 282 283 279 280 278 282 284 283 283 283 282 281 276 274 281 284 274 272 279 280 281 281 282 282 284 284 284 285 286 286 287 288 287 287 288 289 289 288 288 288 289 289 289 289 289 289 292 291 291 290 291 290 291 290 291 293 292 291 292 289 289 288 287 287 286 285 285 286 286 285 284 284 283 283 283 282 282 282
288 286 287 288 288 285 282 280 282 282 279 279 280 283 283 283 283 283 283 281 279 281 285 283 282 274 275 278 282 283 282 282 283 283 284 285 286 286 287 288 288 288 288 288 288 288 288 288 288 288 289 289 290 290 292 292 292 291 290 290 291 291 292 291 291 291 291 289 288 287 287 288 286 285 284 285 284 284 284 282 281 281 281 282 282 282
285 284 283 284 284 282 279 283 284 284 280 280 283 285 283 283 284 283 280 280 281 278 276 278 281 274 275 276 282 282 279 281 282 283 284 286 286 287 287 288 288 288 288 288 287 287 288 288 289 289 289 290 290 291 291 291 291 292 291 291 291 291 290 291 290 291 289 291 289 287 286 285 286 286 285 284 283 282 282 280 281 280 280 281 281 281
288 285 285 286 282 279 284 284 284 283 281 284 286 286 286 285 285 284 280 280 280 276 274 275 278 272 274 276 278 279 279 279 280 282 283 285 286 286 287 287 288 287 288 289 288 288 288 289 289 290 290 290 290 291 292 291 291 292 291 291 291 290 290 290 290 290 289 288 289 286 285 284 284 284 282 281 280 280 280 279 279 280 280 280 280 280
286 290 291 286 281 285 283 285 285 285 285 287 285 283 283 283 282 282 280 278 277 274 274 278 278 275 271 278 279 277 279 281 281 282 283 285 285 286 287 286 287 287 287 287 288 289 289 289 290 290 289 289 290 290 290 291 291 291 291 290 289 290 290 290 289 289 288 287 287 286 285 283 282 281 280 279 278 279 279 278 278 279 279 279 279 280
287 288 286 285 289 288 286 284 286 285 286 285 282 280 280 279 279 278 278 278 273 272 276 277 277 278 270 275 278 281 282 282 283 281 282 283 284 285 286 286 287 286 287 287 287 288 288 289 289 289 289 289 289 289 289 289 290 290 290 289 289 289 289 289 289 288 287 286 286 285 284 282 281 280 279 278 277 278 278 278 278 278 278 278 279 279
283 282 283 288 289 286 284 281 283 284 284 283 282 281 277 276 276 273 276 271 273 272 275 276 278 274 275 277 279 281 282 283 284 284 284 284 284 284 285 286 286 287 287 287 286 288 288 288 288 288 288 288 288 289 289 289 289 289 289 289 288 288 289 289 288 287 286 285 285 284 283 281 281 280 279 278 278 278 278 277 277 277 277 277 277 277
281 284 285 285 287 288 285 279 277 280 281 280 277 275 274 271 269 268 272 274 274 276 277 276 278 274 276 279 282 281 283 284 284 285 286 285 285 285 285 286 286 287 287 287 288 287 287 287 288 288 288 288 288 288 289 289 289 288 289 288 288 288 288 288 287 286 285 285 284 283 281 280 279 279 279 278 278 278 278 278 277 277 277 277 277 277
279 279 281 281 279 285 284 280 280 279 279 279 282 279 277 273 269 266 271 267 268 272 276 277 273 271 273 275 283 282 283 284 285 285 285 285 285 285 285 286 286 286 286 287 287 287 287 288 288 288 289 288 288 288 289 288 288 288 288 288 287 287 287 286 286 285 284 283 282 281 280 279 279 279 279 278 279 278 277 277 277 277 277 276 276 276
280 279 282 285 283 284 282 284 285 280 277 279 281 283 277 272 276 273 274 272 269 269 271 274 273 276 276 283 284 284 282 283 284 284 285 284 285 286 286 286 287 287 287 288 287 287 287 288 288 288 288 288 288 288 288 288 288 287 287 287 287 286 286 285 285 284 283 282 281 280 279 279 280 280 279 279 279 278 277 277 277 276 276 276 276 276
281 278 283 285 286 281 281 283 284 282 276 279 280 275 275 280 276 273 270 271 271 270 270 276 276 277 279 281 282 282 282 281 282 283 284 284 284 285 285 286 286 287 287 287 287 287 287 287 288 288 288 288 288 287 287 287 287 287 287 287 286 286 284 284 284 283 282 280 279 279 279 278 278 278 277 277 277 277 277 277 276 276 276 276 276 276
277 277 281 282 281 283 283 282 283 285 280 280 277 277 279 277 275 273 271 271 270 269 271 274 273 274 276 272 280 281 279 282 282 283 283 284 284 283 285 285 286 286 286 287 287 287 288 288 288 288 288 288 288 287 287 287 288 287 287 286 285 284 283 283 282 281 280 278 278 278 278 278 278 277 277 277 276 277 276 276 276 276 275 275 275 276
280 278 278 282 282 284 285 282 282 285 284 280 278 283 278 274 273 276 273 266 265 265 269 273 275 275 275 275 277 278 279 280 281 282 281 282 283 283 284 284 285 286 286 286 286 286 287 287 287 287 287 288 288 288 288 288 288 287 286 286 284 283 283 282 281 280 279 278 278 279 278 277 277 277 277 277 277 276 275 275 275 275 275 275 275 275
280 277 278 281 281 280 281 280 276 278 283 278 282 281 282 278 274 272 273 271 271 268 268 267 272 271 278 276 279 279 280 281 280 281 281 282 283 284 283 284 285 285 286 286 286 286 287 287 287 287 287 287 287 287 288 287 287 286 286 285 283 283 282 280 279 278 277 278 278 277 277 277 277 277 276 276 276 275 274 275 274 274 274 274 275 274
279 279 277 279 280 280 278 277 275 276 276 278 279 277 277 277 277 276 274 272 270 267 269 267 266 273 277 280 281 281 281 282 282 281 282 283 283 284 284 285 285 285 286 286 286 286 287 287 287 287 287 288 288 288 287 286 286 285 285 283 282 281 280 278 278 277 277 277 277 277 276 276 276 275 276 275 275 275 274 274 275 274 274 274 273 273
279 280 277 278 277 277 276 279 278 277 277 276 276 276 277 274 274 272 270 274 272 271 268 267 267 274 280 281 283 282 283 283 283 283 282 282 283 284 285 285 285 285 286 286 286 286 287 287 287 287 287 288 287 287 285 286 285 284 283 282 281 280 278 277 277 277 277 277 276 276 275 275 275 275 275 274 274 274 274 273 273 273 273 273 273 273
278 277 277 277 276 276 278 278 280 278 275 275 276 276 277 275 276 274 270 270 273 273 272 270 268 272 280 281 282 282 282 282 282 282 282 283 283 284 285 286 286 286 286 286 286 287 287 287 287 287 287 286 286 286 285 285 284 283 281 281 280 278 277 277 276 277 276 276 275 275 275 275 274 274 274 273 273 273 273 273 273 273 272 272 272 273
283 278 277 276 275 277 276 275 274 278 277 274 274 273 275 275 274 274 274 272 271 270 270 270 266 272 280 281 280 281 281 281 282 282 283 283 284 285 285 285 285 285 286 286 286 287 287 287 287 286 286 286 286 285 284 284 283 282 281 280 278 277 276 276 276 276 275 275 275 274 274 274 274 273 273 272 273 272 272 273 272 273 272 272 272 272
277 278 276 275 276 275 274 274 275 274 274 275 277 277 279 277 273 272 272 274 271 271 271 269 266 272 281 281 280 281 281 282 283 284 284 284 285 285 285 285 285 285 285 286 286 286 286 286 286 286 286 285 285 284 284 283 282 280 279 278 277 276 276 276 276 275 275 274 274 274 273 273 273 273 272 272 272 272 272 272 272 272 272 271 271 271
278 277 276 276 273 272 272 274 274 275 276 277 278 278 279 277 272 272 271 272 269 271 272 269 270 277 280 280 281 282 282 283 284 284 285 285 285 285 285 285 285 285 285 285 285 286 286 285 286 285 285 285 284 283 283 282 280 279 278 277 276 275 275 275 275 274 274 274 273 273 273 272 272 272 272 272 272 272 272 272 272 271 271 271 270 270
277 277 276 276 276 275 276 276 278 280 277 274 275 275 276 278 277 276 275 272 270 269 270 274 275 277 279 280 280 281 282 282 283 283 283 284 284 284 285 285 285 285 285 285 285 286 285 285 285 286 285 284 283 282 281 279 279 277 276 276 275 275 275 275 274 274 273 273 273 272 272 272 272 272 272 271 271 272 271 271 271 271 270 270 270 270
277 276 275 274 274 277 277 276 277 279 274 275 276 276 277 277 277 275 272 272 276 272 270 275 278 275 278 278 280 282 283 283 283 283 283 283 284 284 284 284 287 284 284 285 285 285 285 285 285 285 285 284 283 281 279 278 277 276 275 275 274 274 274 275 274 273 273 272 272 272 272 272 272 272 272 272 271 271 271 271 270 270 270 270 269 269
276 276 275 275 273 277 279 279 279 277 277 276 275 276 276 277 277 274 274 277 278 272 273 277 278 277 279 280 282 283 283 283 283 283 284 284 284 284 283 283 283 284 284 284 285 285 285 284 285 285 284 283 281 279 277 277 276 275 275 274 274 274 274 273 273 272 272 272 271 271 271 272 272 272 271 271 271 270 270 270 270 270 270 269 269 270
276 276 275 277 274 276 277 278 278 277 275 276 277 277 277 277 277 277 276 277 277 276 277 278 278 278 280 281 282 284 285 284 284 284 284 283 283 284 283 283 283 284 283 284 284 285 285 285 285 284 283 281 279 277 276 276 275 274 274 274 274 273 273 273 272 272 271 271 271 271 271 271 271 271 270 270 270 270 269 269 269 269 269 269 269 269
276 277 279 273 271 273 275 275 273 276 275 274 276 277 277 278 278 278 277 277 278 277 278 278 277 277 281 283 283 285 284 284 283 283 284 284 285 284 283 283 283 284 284 284 284 284 284 284 285 283 281 280 277 277 276 275 275 274 273 273 273 273 273 272 271 271 271 271 271 271 271 270 270 270 269 269 269 269 269 269 269 268 268 268 268 268
275 275 273 273 272 274 273 273 272 273 273 272 273 275 276 275 272 275 276 278 276 275 276 276 274 276 281 282 283 283 283 282 282 283 283 285 285 284 283 283 283 284 284 284 284 284 284 284 283 282 281 278 276 276 275 275 274 274 273 273 273 272 272 271 271 271 271 271 271 271 270 270 270 269 269 269 268 268 268 268 268 268 268 268 268 268
275 276 276 275 273 273 274 272 272 271 270 273 274 274 275 277 277 278 279 279 279 279 275 271 275 280 281 283 281 282 283 283 283 284 284 283 284 284 283 283 283 284 284 284 284 284 283 284 282 281 280 277 276 275 275 275 274 273 273 272 272 272 271 271 271 270 270 271 270 270 270 269 269 268 268 268 268 268 268 267 267 267 267 267 267 268
272 275 276 275 272 274 274 273 272 273 273 276 281 281 278 277 278 276 276 278 280 280 278 280 281 282 281 282 281 281 282 283 284 285 286 285 283 283 283 283 283 284 284 284 284 284 284 283 282 280 278 276 275 275 275 275 274 273 273 272 272 271 270 270 270 270 270 270 270 270 269 269 268 267 267 267 267 267 267 267 267 267 267 267 267 267
274 275 275 273 273 273 274 276 275 270 274 279 280 279 279 279 280 279 279 279 280 281 281 280 281 281 283 283 283 284 284 285 285 285 285 286 285 284 283 283 284 284 284 283 283 283 284 283 282 279 276 275 275 275 274 273 272 272 272 272 271 271 270 270 270 270 270 269 269 269 268 268 267 267 267 267 267 267 266 267 266 266 267 267 266 266
275 275 276 275 275 274 274 274 271 273 279 280 279 278 281 279 278 279 278 280 281 281 281 280 281 282 283 283 284 284 284 284 284 284 285 286 285 285 284 284 284 284 283 283 283 283 283 282 281 278 275 276 275 274 273 272 272 271 271 272 271 270 270 270 269 269 269 269 269 268 268 267 266 266 266 266 266 266 266 266 266 265 266 266 266 267
278 276 275 274 274 271 273 272 275 279 280 278 278 277 276 277 276 277 274 278 281 282 281 281 281 282 282 283 284 284 282 281 282 284 285 286 286 285 285 285 285 284 284 284 284 283 281 280 277 276 276 274 273 272 272 272 272 271 271 271 271 270 270 269 269 269 268 268 268 268 267 267 266 266 266 266 265 265 265 265 265 265 266 266 266 266
277 274 275 273 273 273 272 271 271 272 271 277 280 281 280 280 281 282 279 278 282 282 283 282 280 282 282 282 282 282 282 280 279 281 284 285 286 286 285 285 285 285 284 283 283 281 280 277 276 276 274 273 272 272 272 271 271 271 270 271 270 269 269 269 268 268 268 267 267 267 267 266 266 265 265 265 265 264 265 265 265 265 266 265 265 265
277 277 275 273 274 273 271 269 269 269 273 280 279 279 281 280 281 282 278 277 281 281 282 282 281 281 281 281 281 282 280 275 279 281 284 283 284 284 283 284 284 283 283 283 283 281 280 277 275 275 274 273 272 271 271 271 271 270 270 270 269 269 268 268 267 267 267 267 267 267 266 266 266 265 265 264 264 264 264 264 264 265 266 266 265 265
274 275 275 273 270 272 271 271 270 273 275 279 279 279 279 279 282 280 274 274 282 281 281 281 281 281 281 281 282 281 279 276 279 282 284 283 283 284 284 283 282 283 283 282 281 281 278 276 275 273 272 272 271 271 271 271 271 270 270 269 269 268 267 267 267 267 267 267 266 266 266 266 265 265 264 263 263 264 264 264 264 264 264 265 265 265
273 273 273 271 272 274 276 271 273 276 280 281 279 279 279 281 280 274 272 279 281 281 282 282 281 282 282 282 281 280 281 284 285 285 285 284 284 284 283 284 283 283 283 281 280 280 276 275 274 273 272 272 271 271 271 270 270 270 269 269 268 267 267 267 267 267 267 266 266 265 265 265 265 264 263 263 263 263 263 263 264 264 264 264 264 264
271 272 274 271 270 271 272 271 272 277 282 280 280 280 280 280 273 273 282 282 281 282 283 283 283 283 282 283 282 283 285 285 284 284 284 284 283 283 283 283 284 283 281 281 280 278 276 274 273 272 272 271 271 271 270 270 270 270 268 268 267 266 267 266 266 266 266 265 265 264 264 263 263 263 262 262 262 262 262 263 263 264 264 264 264 264
276 272 271 269 272 274 272 270 270 271 277 281 280 279 279 278 279 283 283 283 283 283 283 283 284 284 283 283 283 284 284 284 283 283 283 283 283 284 283 283 283 283 281 279 278 278 276 274 273 272 271 271 271 270 270 269 268 268 267 267 267 266 266 266 265 265 264 264 263 262 262 262 261 261 261 261 261 261 261 262 263 263 263 264 264 264
279 276 275 275 277 273 270 270 273 281 280 282 283 279 278 282 285 283 283 282 284 284 283 283 283 284 283 283 283 283 283 283 283 282 283 282 282 283 282 283 282 282 282 279 279 278 277 274 273 272 271 271 270 270 269 268 268 267 265 267 266 266 265 264 264 263 262 261 261 261 260 260 260 260 260 260 261 261 261 262 262 263 263 264 264 263
282 280 280 278 280 279 277 278 282 280 281 283 285 286 284 285 285 284 284 284 283 284 283 283 284 283 283 283 283 283 283 283 283 283 282 283 283 282 283 283 283 282 281 280 278 277 276 275 273 272 271 271 270 269 268 268 266 264 264 266 265 264 263 263 261 259 259 259 259 259 259 259 260 260 260 260 261 261 261 262 262 262 263 263 263 264
281 282 278 279 279 282 284 285 286 283 281 282 284 285 286 286 285 285 284 284 284 285 285 285 284 283 283 283 283 282 283 283 282 282 282 282 282 282 282 282 282 282 281 279 276 276 275 274 273 271 271 270 269 268 267 266 265 263 265 265 264 263 262 259 258 258 258 258 258 259 258 258 259 260 261 261 261 261 262 262 262 262 263 263 263 263
281 280 280 278 279 280 278 282 283 285 286 284 284 286 286 286 287 285 285 286 287 286 285 284 285 284 283 283 283 283 283 283 283 283 282 282 282 282 283 283 282 281 281 280 277 275 274 272 272 271 270 269 268 267 266 264 265 265 264 262 263 262 259 258 257 257 257 258 258 258 258 258 258 260 261 261 262 261 262 262 262 263 263 263 262 263
280 281 279 280 278 278 281 283 283 284 284 284 286 285 286 287 287 287 288 287 287 286 284 285 284 283 283 283 283 283 283 283 282 283 282 282 282 282 282 282 283 281 280 280 277 275 274 273 272 271 269 269 268 267 266 264 263 263 262 261 261 259 258 257 257 257 257 258 258 258 258 258 261 260 259 260 261 261 262 262 262 262 262 263 263 263
280 282 277 278 279 280 283 284 286 285 285 286 287 288 288 289 288 287 286 285 285 285 284 283 283 284 283 284 283 282 282 283 283 283 282 282 282 282 283 283 283 282 280 278 275 275 275 273 272 271 270 270 269 267 265 263 263 262 261 261 260 258 257 256 257 257 256 258 258 259 258 258 259 259 258 259 261 261 262 262 262 262 263 264 265 265
281 280 281 280 278 280 281 284 282 281 282 283 283 285 286 287 286 285 284 284 284 284 284 283 283 282 283 283 283 283 283 284 283 282 282 283 283 283 283 283 283 282 280 278 276 274 274 273 272 271 270 269 267 266 264 263 263 261 262 260 259 258 257 256 256 256 257 258 258 258 258 258 258 258 259 259 260 260 262 265 267 268 266 266 269 271
283 284 283 280 279 281 286 287 286 287 286 287 287 288 286 286 285 285 284 284 284 283 283 283 283 282 282 282 283 283 283 283 283 283 282 282 283 284 284 284 283 281 280 276 274 272 273 272 271 270 269 268 267 265 264 263 262 261 261 261 260 258 257 256 255 256 258 258 258 259 259 258 258 259 259 260 260 260 260 261 263 268 270 271 270 270
Wind_Speed
2 12 10 5 5 7 7 7 5 4 3 5 2 4 4 6 3 2 3 2 3 3 3 2 3 3 3 3 2 2 1 1 1 1 0 1 2 1 2 3 2 3 2 2 3 2 0 2 3 1 1 3 4 4 4 4 4 3 4 5 6 5 4 5 5 4 3 4 6 4 5 6 5 5 5 6 5 6 6 5 5 8 8 7 6 5
2 16 6 4 3 5 5 5 5 5 2 4 3 2 6 5 3 1 2 3 2 2 1 1 3 2 3 2 2 2 2 2 1 0 1 2 2 1 2 2 2 2 2 3 4 4 3 3 3 2 2 3 3 4 4 4 4 5 6 6 6 5 4 5 5 4 3 3 4 6 6 6 5 5 6 5 6 6 5 6 8 8 7 6 6 7
14 8 3 2 2 3 5 3 3 3 5 2 3 1 3 3 3 3 2 1 0 1 1 0 2 4 3 3 2 3 2 2 3 3 2 3 2 2 2 2 3 3 3 4 4 4 4 4 3 2 2 3 3 3 4 4 5 6 5 5 5 5 5 5 5 3 3 3 4 5 6 6 5 4 5 5 6 6 6 8 8 8 6 7 7 6
8 4 4 2 2 4 1 9 7 2 5 5 6 6 3 1 2 1 0 1 2 1 3 1 3 3 3 2 3 0 0 1 1 0 1 0 2 2 2 3 3 3 3 3 4 4 4 4 4 4 3 3 3 4 3 4 4 4 4 4 5 5 5 5 5 3 4 4 5 5 6 6 6 7 6 5 6 6 8 9 8 6 7 7 7 6
7 2 2 5 4 3 4 7 10 5 5 6 7 3 2 3 2 0 2 2 2 1 0 2 1 0 3 3 1 3 0 1 2 2 3 4 3 2 3 4 2 1 2 2 4 4 4 4 5 5 5 4 3 4 2 3 3 3 4 4 4 4 5 4 4 4 4 4 4 5 5 5 6 4 5 6 6 7 8 8 7 8 7 7 7 6
6 2 2 4 2 4 4 8 9 4 1 2 3 3 1 2 3 4 2 3 1 2 2 2 0 0 3 4 3 2 1 3 3 4 4 5 4 4 3 2 1 1 2 3 4 4 4 5 5 5 5 4 4 4 2 2 3 4 4 4 4 4 5 5 4 2 3 4 5 6 6 7 6 6 6 8 9 9 8 8 7 7 7 7 6 7
3 6 3 3 3 3 4 5 4 4 1 1 2 3 2 1 1 2 3 1 2 2 3 1 5 2 1 1 2 3 3 4 4 4 4 4 2 2 2 1 1 2 3 3 3 4 4 5 5 5 5 5 4 4 1 2 3 4 4 4 4 4 4 4 4 4 4 4 4 5 6 6 6 8 7 7 8 8 8 7 9 8 7 6 8 7
4 8 8 7 1 4 4 6 5 6 3 2 3 2 3 2 0 1 2 1 1 2 0 2 1 0 0 2 1 2 1 2 3 5 7 4 3 2 1 0 0 1 1 2 3 3 4 5 5 5 5 5 5 4 2 2 2 3 4 4 4 4 4 4 4 4 4 4 4 5 5 6 6 7 10 9 8 8 8 9 9 7 7 7 6 6
6 4 7 7 4 5 4 1 4 5 1 1 1 0 1 0 1 1 1 3 1 1 0 2 7 1 0 2 0 1 2 1 2 4 4 2 1 1 1 1 1 1 2 1 3 4 4 5 5 5 5 5 6 4 2 3 2 1 2 4 4 4 4 4 4 4 4 4 4 5 5 6 6 8 8 8 8 8 8 9 8 7 7 7 6 7
2 3 3 3 3 3 3 2 1 5 1 1 2 3 2 0 0 0 0 3 1 2 1 4 5 1 0 2 1 1 2 2 3 3 3 2 2 1 1 1 2 3 2 1 2 3 4 5 5 5 5 5 5 4 4 4 3 1 2 4 4 4 4 4 4 4 4 4 4 5 5 7 9 8 8 7 9 8 8 8 8 7 7 6 7 7
2 1 3 2 3 2 2 2 1 1 1 2 0 1 2 2 1 1 1 1 2 0 0 1 3 3 0 0 0 2 0 0 2 2 3 4 6 6 5 4 4 4 4 2 2 2 3 4 4 4 4 4 5 4 4 4 4 3 3 3 4 4 5 5 4 4 4 5 4 5 6 8 9 9 9 9 9 8 8 8 8 7 7 7 7 7
2 1 1 1 3 3 3 4 2 1 1 0 1 2 1 0 1 0 1 2 1 1 1 1 1 1 1 0 1 1 3 1 1 2 3 4 4 4 4 4 5 5 4 5 4 3 3 5 5 4 5 5 5 4 4 4 4 4 4 4 5 5 5 5 4 5 5 5 5 5 7 8 8 9 9 9 10 9 9 8 8 7 7 7 7 7
4 4 1 1 3 3 3 1 2 1 2 2 3 1 1 0 0 2 1 3 0 1 1 0 3 1 1 1 3 2 2 2 2 1 2 2 4 4 4 4 4 4 5 5 4 2 3 4 5 5 5 5 4 4 4 5 5 4 4 5 5 6 6 5 5 5 5 6 6 7 7 7 7 8 8 8 8 8 8 7 8 8 8 7 7 7
1 2 4 5 1 6 7 3 5 2 7 7 4 3 2 3 3 0 2 2 1 0 1 1 0 0 2 0 2 3 2 2 1 1 0 1 2 4 4 3 4 5 5 3 2 3 4 4 4 4 4 4 4 4 4 4 4 4 4 4 5 6 5 5 5 5 6 7 7 6 7 7 7 8 8 7 8 8 7 7 8 8 8 8 7 8
1 2 5 6 3 6 4 4 0 2 5 3 1 2 1 3 2 1 0 0 2 3 2 1 0 1 1 2 0 3 3 0 0 0 0 1 4 4 3 4 3 3 3 3 3 4 4 4 4 4 3 3 3 4 4 4 4 4 4 4 5 5 5 5 5 5 6 6 6 6 6 7 7 7 7 7 7 7 8 7 8 7 7 7 7 8
2 2 2 2 3 3 4 1 1 2 3 4 3 0 3 0 1 0 0 0 1 3 5 1 1 1 2 0 1 0 2 1 2 2 3 4 2 2 3 2 2 2 2 2 3 4 4 4 3 3 3 3 3 4 4 4 4 4 4 4 4 4 4 5 6 6 6 6 6 6 7 8 7 7 7 6 6 6 6 7 7 8 7 7 7 7
0 0 1 1 1 3 1 3 2 1 2 2 2 2 1 0 1 2 2 2 1 1 3 1 0 3 1 1 1 2 1 4 4 4 2 1 3 2 2 3 3 2 2 2 3 3 4 4 3 3 2 2 3 4 4 4 4 4 4 4 4 4 5 6 6 7 6 7 7 7 7 7 7 7 7 7 8 7 6 6 6 6 7 8 7 7
1 0 1 1 1 0 1 2 2 3 1 2 2 1 1 1 1 1 0 0 1 1 2 1 0 3 1 2 1 1 3 1 2 2 2 4 3 4 4 3 4 4 3 3 3 3 3 3 3 3 2 2 3 3 4 4 3 3 4 4 4 4 6 6 6 6 6 7 7 7 7 7 7 7 7 7 7 6 7 7 6 6 7 7 7 7
1 0 1 0 1 0 1 3 3 1 2 3 0 2 1 0 2 1 1 2 3 2 2 3 3 2 1 1 2 1 1 4 4 3 4 5 5 5 4 4 4 4 4 4 4 4 4 3 3 3 3 2 3 3 2 3 3 4 4 4 4 4 5 6 5 5 6 6 6 6 7 7 7 7 7 6 6 6 7 7 6 7 7 7 7 8
1 1 0 1 1 1 1 1 1 5 0 1 2 1 1 0 2 1 0 2 2 3 5 4 5 2 1 2 1 1 2 3 4 3 3 4 4 4 4 4 4 4 4 4 4 4 4 4 3 3 3 3 2 3 2 2 3 4 4 4 4 4 5 5 6 6 7 6 6 7 7 7 6 6 6 7 7 7 7 6 7 7 7 7 7 7
1 1 1 1 2 0 1 3 1 1 2 3 2 2 3 1 1 2 1 1 1 1 1 2 5 1 2 0 1 0 1 1 2 3 3 4 4 4 4 3 4 4 4 4 4 4 4 4 4 3 2 1 2 1 2 3 3 3 4 4 4 5 5 5 6 6 6 6 7 7 7 8 6 6 6 7 6 7 6 6 7 7 7 7 7 7
0 0 0 1 0 1 1 1 0 1 0 0 0 1 0 4 1 0 2 1 1 1 1 0 7 5 2 1 1 1 1 1 2 2 4 4 4 4 3 3 3 4 4 4 4 4 4 4 4 3 2 2 1 2 4 4 3 4 4 4 4 4 4 5 6 5 6 6 7 7 7 7 5 5 6 7 7 7 6 6 7 7 8 7 7 7
1 1 0 1 0 0 1 2 0 0 2 1 1 1 3 3 0 1 1 2 0 0 1 1 1 8 4 1 1 2 2 2 3 4 4 4 3 3 3 3 3 3 4 4 4 4 3 3 3 3 2 2 2 2 3 3 3 3 4 4 4 4 5 5 5 5 6 7 7 7 7 7 5 6 6 7 7 7 7 7 7 7 8 8 7 7
1 0 1 1 0 1 0 1 0 3 1 1 1 1 2 1 0 0 0 1 1 0 1 0 1 9 3 2 3 2 3 3 3 4 6 6 5 2 2 2 3 4 4 4 3 3 3 3 2 3 3 1 2 3 3 3 3 3 4 4 4 5 5 5 5 6 6 6 6 6 7 6 6 6 7 7 6 7 7 8 7 7 8 8 8 8
1 0 1 3 0 1 0 0 1 1 1 1 1 1 0 2 3 0 1 1 0 4 4 2 4 3 1 2 3 3 4 4 5 3 1 1 1 1 1 2 3 4 4 4 4 4 3 3 3 3 1 1 2 3 3 3 3 3 4 4 4 4 4 5 5 6 6 6 7 7 7 6 7 7 7 8 7 8 8 8 8 7 8 8 8 8
0 0 1 0 1 0 1 1 2 0 1 2 1 2 0 3 3 1 1 0 1 1 3 2 5 6 1 2 4 4 2 4 4 3 2 1 1 2 2 3 4 4 4 5 5 4 4 3 3 2 1 2 3 3 3 3 3 3 4 4 4 4 5 5 5 6 6 6 6 7 7 6 7 7 8 8 8 8 8 8 8 8 8 8 9 9
0 0 0 1 1 3 3 1 1 1 1 3 2 4 3 2 4 1 1 1 4 3 5 8 6 8 11 8 5 5 5 5 6 4 4 3 2 3 3 4 4 4 5 5 4 4 3 4 4 1 1 2 3 3 3 3 3 3 4 4 4 4 4 4 5 6 6 6 6 7 6 7 7 8 7 8 8 8 8 8 8 9 9 8 8 8
0 0 0 1 4 6 3 5 3 4 3 3 3 4 6 5 4 4 5 4 3 5 6 4 6 5 10 5 5 7 7 6 5 4 4 3 3 4 4 5 5 4 5 4 4 3 4 4 3 1 1 2 3 3 3 3 2 3 3 4 4 4 4 5 5 6 6 6 6 6 7 7 7 7 7 8 8 8 8 8 8 9 8 8 9 8
0 1 0 0 4 6 6 5 3 3 4 4 4 4 4 6 7 9 7 7 0 5 9 1 1 3 10 9 8 8 8 6 5 4 4 4 4 5 5 4 5 5 5 4 4 3 3 4 3 1 1 2 3 3 3 3 3 3 4 3 4 4 4 5 5 5 6 6 6 6 7 7 6 6 7 8 8 8 8 9 9 8 8 8 8 8
1 0 0 0 6 8 9 6 4 6 2 2 6 7 6 6 11 12 10 7 8 10 9 12 12 15 14 12 12 11 7 6 5 3 3 5 6 3 3 5 5 6 5 4 4 3 3 3 2 1 2 2 3 3 2 3 3 3 4 4 4 4 4 4 5 5 6 6 6 7 7 7 7 7 8 8 9 9 9 9 9 9 9 8 8 8
0 0 3 1 2 5 1 2 1 2 2 5 7 7 7 7 7 9 8 8 8 11 14 14 13 15 14 7 8 8 6 3 4 5 6 4 1 2 5 5 5 5 5 4 4 4 4 4 1 2 2 2 2 2 2 1 2 3 3 4 4 4 4 4 4 5 5 6 6 6 7 7 7 8 8 8 8 8 9 10 9 9 8 9 9 9
0 0 2 1 3 4 1 1 1 2 5 7 9 7 7 7 8 6 9 7 7 10 5 4 6 10 10 6 3 4 5 5 5 6 4 2 1 3 5 6 6 5 5 5 4 4 4 4 1 1 1 2 3 2 1 1 2 3 3 4 3 3 3 4 4 5 6 5 6 6 7 7 8 8 9 8 9 9 9 9 9 9 9 9 10 10
0 0 0 0 1 3 0 2 6 3 4 6 7 10 15 11 6 2 6 5 11 5 3 4 9 6 3 1 2 4 4 5 5 4 3 3 4 4 5 5 5 5 5 5 5 4 4 1 1 1 2 3 3 2 1 1 1 2 3 3 3 3 3 4 4 5 5 5 6 6 6 7 8 8 9 9 9 9 9 9 9 9 10 10 9 10
0 0 0 1 1 3 2 5 2 2 3 2 2 2 11 10 13 11 6 11 12 10 8 7 9 5 6 7 6 7 5 5 4 4 3 4 5 5 4 5 5 5 5 5 4 3 2 2 2 3 3 3 3 2 0 0 1 2 3 2 3 3 3 4 4 4 5 5 6 6 6 6 7 8 8 9 9 9 9 9 9 9 8 8 9 10
1 1 0 1 0 4 5 7 2 2 3 0 2 3 2 1 9 14 11 6 8 12 12 12 13 10 10 6 6 7 6 6 3 4 6 7 5 5 5 5 5 5 5 4 4 4 0 1 1 3 4 4 2 1 0 2 3 2 3 2 2 2 3 3 4 4 4 5 6 6 6 7 7 8 8 9 9 9 9 9 9 9 8 8 9 9
1 0 0 0 1 3 2 3 2 4 1 2 1 2 1 2 2 0 8 13 14 13 15 14 15 12 7 7 7 5 5 4 5 5 7 8 4 4 3 4 4 4 5 4 3 3 0 1 1 3 4 3 3 2 2 2 2 2 2 2 1 2 2 3 4 4 5 6 6 6 6 7 7 8 8 9 9 9 10 9 9 10 9 8 8 8
2 1 0 1 1 1 1 1 7 7 9 2 1 1 3 2 3 3 3 7 8 11 12 11 12 8 7 7 7 5 3 5 7 10 4 3 4 4 4 5 5 5 5 4 1 1 2 2 3 4 4 3 3 2 2 1 2 2 2 2 2 2 2 3 3 4 5 6 6 7 6 6 7 8 9 9 9 9 10 10 10 9 8 9 9 10
3 1 1 1 1 1 1 5 4 2 1 2 2 0 2 0 1 1 1 10 4 8 10 11 7 7 7 5 4 2 3 6 9 6 1 0 4 3 4 4 5 5 4 3 1 3 4 4 5 4 4 4 3 2 1 1 1 1 2 2 2 3 3 2 3 4 5 5 6 6 7 6 6 8 8 8 9 10 10 10 8 8 8 9 10 10
3 1 0 2 1 1 0 1 2 1 7 2 3 4 2 1 1 2 2 9 3 1 7 7 7 6 6 5 4 1 2 3 8 7 4 4 4 4 4 5 4 4 3 2 3 2 4 4 5 4 4 3 4 3 1 0 1 1 1 1 2 2 2 3 3 4 5 6 6 6 6 6 6 7 8 9 8 9 9 9 9 8 8 8 8 9
1 0 0 0 1 3 1 1 5 4 6 3 5 3 4 1 1 1 4 5 2 1 5 5 6 6 6 5 3 2 4 7 9 6 3 5 5 4 3 5 5 3 1 2 2 3 5 6 5 4 4 4 3 3 1 0 0 1 0 1 2 1 3 3 3 4 4 5 6 5 6 6 6 7 7 8 9 8 8 8 8 8 8 8 7 8
0 0 2 5 1 5 6 4 4 7 4 2 6 5 4 2 2 1 8 5 2 3 5 5 5 6 5 5 3 6 7 9 8 4 3 4 5 6 4 3 4 3 3 2 3 5 5 4 5 5 4 4 4 3 1 0 0 1 1 1 1 2 2 2 3 3 4 5 6 6 6 6 6 7 7 7 7 7 7 7 7 9 8 8 8 7
1 1 0 1 2 4 4 5 7 8 7 5 2 5 2 2 1 7 5 2 5 5 5 6 6 6 5 6 5 7 8 6 6 6 6 6 5 5 5 4 2 1 2 3 6 4 4 4 4 4 4 4 4 2 1 0 0 0 2 1 1 3 2 2 3 3 4 6 6 6 6 6 6 5 6 6 7 7 8 7 7 7 7 7 7 8
6 5 5 4 3 1 1 1 4 5 1 6 9 2 1 3 6 3 1 2 3 4 5 5 6 6 4 6 6 8 8 7 6 6 6 6 5 6 6 5 4 3 4 3 3 4 5 4 5 5 5 4 3 3 2 1 0 1 2 1 2 2 2 2 2 4 4 5 6 5 6 6 5 6 5 6 6 7 9 8 7 7 7 7 7 8
4 1 2 5 5 5 5 5 7 7 3 8 12 6 7 11 4 4 2 1 3 4 4 4 5 5 5 6 7 7 7 7 6 6 6 6 5 5 4 4 3 3 3 4 6 6 5 5 5 5 5 5 4 3 2 2 2 2 1 0 3 2 2 2 3 3 4 4 5 5 5 5 6 6 5 6 7 7 8 8 7 6 6 6 7 7
8 7 3 3 4 6 8 10 6 1 6 12 11 6 5 11 6 3 2 3 3 5 4 4 5 4 5 6 6 6 6 6 7 6 6 6 6 5 5 5 4 4 4 4 5 6 5 6 6 6 5 5 5 3 3 1 3 2 1 1 3 2 2 3 3 3 3 4 4 4 4 5 5 6 5 5 5 7 8 9 8 8 6 6 7 6
2 2 2 1 6 5 10 11 9 4 3 6 9 8 6 4 4 4 5 6 6 6 4 6 5 5 5 4 5 6 6 7 6 6 5 6 5 5 5 4 4 2 3 4 3 5 5 4 5 6 6 5 5 4 3 2 3 3 2 2 2 2 3 2 3 3 4 4 4 5 4 5 6 5 6 7 4 5 6 7 8 7 8 6 5 5
5 2 1 4 2 4 8 1 5 12 9 6 11 12 11 9 8 5 6 7 9 7 6 5 6 5 5 4 5 7 7 6 7 7 6 5 6 6 5 5 5 5 5 5 6 5 5 5 5 6 5 6 4 4 3 3 1 2 2 2 3 2 2 1 2 3 4 4 5 4 4 4 4 6 7 7 7 5 5 5 6 7 8 7 6 6
4 4 3 7 3 5 12 2 4 3 2 2 5 7 9 10 9 9 10 9 9 7 5 6 4 5 2 4 6 6 8 6 6 7 6 6 6 5 5 5 4 3 4 5 6 6 5 6 5 5 5 5 6 4 4 3 3 3 3 2 2 2 1 1 2 4 4 5 5 4 4 4 5 5 5 6 7 8 8 7 5 6 6 7 7 7
4 5 5 4 5 9 10 16 17 13 14 15 15 12 12 11 10 7 6 7 7 7 7 5 4 5 4 7 5 5 7 7 6 6 7 6 6 5 6 6 5 5 5 5 5 6 8 6 5 5 6 5 6 6 4 4 3 3 3 2 3 2 0 1 3 4 4 5 4 4 2 3 4 4 4 5 6 7 5 6 8 8 9 6 5 5
6 8 3 2 4 9 10 10 2 3 7 5 5 8 8 8 6 6 4 4 4 5 6 5 5 4 5 6 6 6 8 8 7 6 7 7 6 6 6 5 4 4 5 5 5 6 4 5 6 6 7 5 6 6 5 4 3 3 3 3 2 2 1 1 3 4 4 4 3 3 4 4 4 4 4 4 5 5 8 9 11 10 7 9 9 11
11 13 8 8 6 9 10 10 6 9 7 8 5 2 3 2 3 3 5 6 6 5 5 5 6 5 5 5 5 7 8 8 9 6 6 6 7 6 6 6 5 4 4 5 5 4 5 5 6 5 6 6 6 5 5 5 4 4 4 3 3 3 1 0 2 3 4 3 4 4 4 4 5 5 4 4 5 5 5 7 8 12 16 14 12 15
Wind_Direction
355 69 40 34 0 359 6 15 6 330 343 306 36 61 73 108 86 90 76 339 22 328 68 76 104 113 133 141 149 128 212 259 181 84 41 83 75 53 34 39 11 26 32 353 331 359 2 39 346 0 12 345 336 2 349 326 341 345 332 333 319 317 330 347 334 334 358 346 338 329 323 315 311 317 322 318 331 333 321 326 345 340 329 316 313 324
20 68 30 32 342 334 335 334 348 330 351 1 310 75 47 41 93 82 15 342 59 42 86 100 131 129 125 137 150 147 234 211 115 87 76 44 17 52 47 28 16 331 7 357 345 341 3 13 343 19 349 337 354 329 328 341 351 353 342 329 323 331 349 340 330 338 9 3 328 319 305 305 310 327 324 321 326 321 324 343 340 327 315 316 326 326
48 59 38 7 325 313 279 304 317 332 327 14 13 254 105 52 103 38 6 9 10 329 112 114 253 151 137 136 159 181 242 86 35 23 37 355 342 325 20 12 342 344 359 347 337 334 350 346 334 9 335 332 342 321 345 358 5 347 334 332 330 333 349 331 320 13 8 344 327 314 304 312 317 313 315 318 321 329 340 335 323 315 316 325 322 321
69 37 3 8 303 299 68 29 4 329 58 28 13 41 72 10 32 38 101 308 25 36 335 48 330 118 126 109 155 275 159 105 112 189 274 279 309 327 342 329 303 343 337 327 323 326 331 336 344 350 343 326 337 350 339 12 356 332 330 330 340 341 339 328 317 13 9 345 313 309 310 329 332 316 318 326 327 330 328 317 315 316 322 319 320 328
89 60 352 307 266 268 50 38 33 14 83 30 46 46 36 7 20 18 351 335 257 227 246 279 278 51 148 162 200 169 357 112 197 209 235 242 232 254 265 259 238 315 292 311 327 333 329 339 344 333 326 335 347 327 343 16 348 330 326 333 343 341 323 315 328 15 358 330 319 312 322 328 319 318 327 328 320 321 315 312 320 319 320 322 327 336
72 47 259 305 339 20 32 33 29 339 88 108 41 10 5 342 345 351 351 23 12 297 277 36 81 206 166 191 185 140 143 255 203 210 243 231 209 201 253 278 312 307 350 357 344 325 326 338 333 336 329 338 324 321 1 26 337 335 333 342 344 326 319 322 320 14 4 338 330 331 337 328 324 319 331 326 322 321 322 319 315 318 323 327 335 335
49 360 349 310 308 316 79 84 24 20 278 82 313 284 317 266 303 301 320 23 6 40 311 329 89 285 4 211 121 157 215 234 164 210 247 256 226 226 235 277 359 4 341 349 325 319 340 332 337 331 335 325 332 322 3 22 348 340 340 338 323 317 316 319 330 15 9 351 337 337 326 316 321 326 315 314 313 318 316 316 319 320 327 333 332 325
348 7 359 355 34 55 31 30 2 26 346 85 239 266 257 261 194 338 327 260 231 194 42 353 349 178 179 347 37 78 295 274 250 222 214 216 224 239 242 268 332 323 308 302 300 322 345 340 334 331 329 327 316 307 31 10 336 341 324 324 314 319 326 325 346 11 14 351 338 331 325 323 327 320 313 317 318 317 315 318 320 325 327 329 325 330
28 1 5 6 24 43 47 14 331 337 37 145 207 272 302 335 29 310 208 279 199 98 304 339 335 114 78 262 3 250 311 297 32 25 32 33 15 1 354 319 315 299 282 288 354 349 345 340 333 329 336 327 330 351 28 314 292 321 318 313 319 324 327 323 354 12 7 355 343 339 325 323 313 313 312 317 317 316 320 319 322 325 325 324 332 330
57 49 346 330 24 38 338 6 338 356 47 190 237 225 268 276 255 141 346 308 291 62 324 323 335 75 98 245 253 260 246 5 348 13 67 60 359 338 292 290 279 274 278 48 24 346 347 340 330 330 335 336 337 340 355 352 350 327 313 308 325 324 336 336 358 20 2 3 356 332 326 318 317 318 318 321 317 320 323 320 324 326 325 330 329 325
120 67 307 42 27 341 284 302 181 262 312 329 14 307 224 226 243 163 187 253 350 33 256 343 346 114 208 344 155 98 279 283 333 346 18 21 11 2 4 352 343 345 338 356 354 339 339 325 321 330 333 328 336 340 350 350 335 337 333 326 333 326 344 351 2 22 9 5 348 329 324 322 320 325 326 322 320 321 324 323 326 328 330 329 325 327
148 224 33 102 223 296 207 283 176 219 269 255 238 236 165 217 325 94 314 75 76 200 244 154 312 59 69 301 53 107 125 59 86 351 10 9 351 351 350 352 345 340 342 332 331 320 343 333 327 335 337 339 333 346 344 339 345 337 336 339 333 342 354 352 11 21 11 357 336 326 326 326 329 330 326 324 321 326 326 327 327 330 328 325 325 323
44 27 247 208 202 7 351 324 261 291 242 237 245 280 27 172 58 5 129 2 51 244 243 178 350 28 264 169 173 141 104 93 72 104 25 9 343 333 336 330 327 318 309 297 289 340 344 332 323 334 335 342 341 335 338 345 342 334 342 345 354 345 350 359 11 21 0 341 331 330 331 332 330 328 326 322 325 326 326 330 329 332 325 324 322 324
53 306 41 332 328 9 0 50 343 355 348 358 42 345 48 43 44 61 329 256 87 60 238 119 250 201 172 336 116 134 107 115 95 76 70 38 291 287 284 294 293 286 283 297 336 360 341 323 314 327 338 333 332 332 340 342 335 342 344 348 355 340 352 5 12 5 345 332 329 335 335 332 333 329 329 330 326 327 329 332 329 327 325 321 322 327
17 355 4 359 9 330 27 56 334 256 304 318 254 54 84 108 130 131 337 66 230 272 290 274 39 231 334 243 188 111 130 145 165 78 131 242 253 255 260 257 270 302 337 4 348 333 321 312 320 333 329 330 322 327 338 340 342 346 343 354 347 349 357 6 1 345 332 329 334 335 336 333 334 329 331 328 327 329 331 330 326 324 320 321 325 325
114 140 260 25 234 323 9 297 249 330 299 260 276 254 42 203 306 143 200 194 1 3 339 336 213 154 156 231 99 194 107 235 230 212 222 259 290 287 289 297 299 313 333 334 330 324 318 318 332 340 331 328 332 335 347 346 344 356 348 345 349 358 359 0 345 336 333 333 336 334 336 336 335 334 332 326 329 329 330 328 326 323 322 324 323 322
195 9 283 292 299 44 352 334 18 123 56 304 12 51 215 325 60 81 31 45 123 66 243 227 354 3 285 277 196 206 229 259 203 220 220 269 274 298 330 325 307 312 323 323 321 312 315 324 330 328 324 337 349 352 348 349 358 360 349 349 2 358 5 348 338 333 336 337 337 337 337 338 340 338 335 332 330 330 332 328 325 323 323 322 320 314
120 261 311 305 356 347 13 303 265 293 133 306 31 249 155 87 131 121 112 242 157 153 264 89 354 290 140 312 264 277 290 294 54 9 340 308 335 355 326 326 340 331 325 311 311 311 309 312 320 325 330 348 357 359 356 357 357 6 14 15 4 9 351 335 334 334 342 340 338 334 337 341 341 339 334 332 330 334 333 327 323 322 320 317 316 317
126 17 295 357 232 312 221 10 323 229 140 89 171 183 83 322 10 271 115 5 9 335 301 281 349 270 118 212 358 316 4 351 357 353 352 340 338 329 327 329 332 332 330 328 316 317 317 323 323 323 324 341 10 6 355 344 3 15 20 16 30 2 340 332 334 343 341 343 337 337 340 341 341 339 333 330 334 335 329 324 324 321 318 317 319 317
257 118 307 280 255 300 353 27 40 319 347 11 17 311 258 93 140 13 192 201 142 264 26 295 7 252 285 168 258 333 28 1 337 337 313 311 310 315 317 322 320 317 313 312 316 310 314 319 327 327 327 353 0 345 329 0 25 19 17 29 9 346 337 335 345 345 340 340 341 340 340 338 337 336 335 336 333 334 329 324 324 320 318 315 315 310
319 111 20 274 321 77 313 13 93 345 338 337 5 346 351 47 204 137 24 96 157 186 221 316 332 287 246 217 113 23 45 305 309 287 292 292 295 303 310 314 312 308 309 307 307 313 316 318 318 317 326 355 340 328 23 40 31 27 35 18 354 342 334 342 342 345 339 343 343 340 336 334 336 337 340 333 335 331 321 323 321 317 310 310 310 312
60 34 2 256 10 76 175 85 41 334 222 202 263 308 45 330 5 37 277 347 345 96 238 168 260 273 274 279 150 116 221 230 267 273 271 272 282 304 305 315 298 299 299 302 307 308 306 304 307 307 310 313 355 23 30 33 29 31 28 2 346 342 342 346 342 346 345 344 340 335 332 330 334 343 338 336 329 321 321 319 319 314 313 310 309 315
113 251 78 304 59 139 103 164 94 234 165 187 122 327 345 288 226 294 254 255 291 283 66 178 223 273 237 256 166 186 202 222 248 261 260 262 283 279 284 283 293 290 289 294 299 302 308 315 313 315 329 2 40 43 43 32 36 37 18 355 340 349 340 351 344 348 346 341 335 332 331 331 338 342 335 332 325 320 322 319 314 314 311 311 313 314
40 68 310 96 2 123 225 192 32 356 350 19 274 259 355 337 176 144 139 163 152 199 79 147 213 250 249 223 214 248 234 245 267 260 255 255 250 265 292 312 309 308 300 307 309 311 319 314 323 344 316 350 36 43 43 32 41 28 9 350 342 346 345 349 351 348 344 336 330 331 334 334 337 338 333 328 321 319 319 318 314 313 312 313 313 315
63 303 120 275 291 321 357 350 329 319 25 250 221 178 92 68 56 133 80 30 45 213 180 112 250 275 255 217 252 265 266 250 255 272 204 290 309 317 313 305 299 302 314 313 304 296 303 312 311 293 324 45 48 50 47 35 33 17 353 344 344 343 351 349 351 348 338 333 334 333 333 338 339 336 333 325 321 319 319 317 317 316 317 318 318 319
76 347 36 56 89 22 286 244 259 245 230 202 77 109 211 136 142 93 80 232 169 290 99 188 254 259 238 234 245 241 280 313 316 312 328 54 355 325 315 299 297 307 297 289 290 312 309 290 297 326 11 57 65 65 49 42 27 4 346 342 349 355 353 349 357 343 334 335 337 331 333 341 337 334 328 324 321 321 319 319 320 321 321 324 321 319
276 13 293 260 218 224 214 207 68 118 335 225 214 175 209 203 212 196 359 157 212 194 198 236 213 279 290 291 317 310 321 314 316 321 329 337 323 321 309 301 291 280 274 273 277 281 306 328 305 314 52 83 83 78 67 51 15 352 343 341 349 7 358 354 353 339 335 338 336 330 338 338 333 328 324 323 321 319 319 321 324 325 324 324 318 316
260 231 50 24 264 247 271 245 212 154 210 241 218 227 193 185 190 202 183 215 154 88 287 248 225 233 267 287 296 309 305 303 302 315 323 326 311 296 281 271 284 299 293 293 302 306 301 291 306 341 68 75 82 76 62 44 22 351 354 337 353 6 6 360 348 339 336 336 332 333 336 332 328 326 324 322 320 320 322 327 327 325 323 320 319 320
84 268 248 3 270 262 259 263 200 185 214 230 215 227 217 191 186 198 226 239 145 179 226 237 27 288 276 280 282 284 281 275 283 297 295 275 277 280 280 293 298 288 282 288 286 294 305 307 301 330 75 83 79 69 50 29 359 350 345 347 9 12 8 0 343 337 337 333 331 333 331 329 327 324 323 322 322 324 328 330 327 323 322 321 319 322
84 288 136 239 286 287 279 256 236 207 229 241 238 225 223 200 210 211 233 231 240 258 271 296 301 285 275 275 274 269 270 268 273 276 301 295 267 257 299 300 288 284 281 280 287 291 298 301 313 75 77 78 84 69 42 18 352 347 343 354 4 10 1 359 340 337 334 330 328 330 330 329 327 324 325 327 328 329 330 328 326 323 324 326 325 322
100 194 134 53 339 287 39 40 18 237 211 252 241 225 221 227 236 224 232 242 241 272 267 271 277 280 275 253 254 261 257 269 309 302 262 251 291 333 309 296 290 287 287 291 297 300 301 303 344 81 81 98 101 86 59 19 347 336 349 0 357 6 353 355 337 337 329 322 327 328 327 329 327 328 329 328 326 328 329 328 325 324 326 329 326 325
45 204 66 128 17 296 296 231 239 245 247 261 273 245 227 211 232 228 215 216 183 224 247 250 260 257 265 263 241 249 260 254 244 254 277 288 298 301 298 294 291 290 291 290 291 300 308 309 58 88 105 110 109 95 68 6 331 349 354 348 355 355 353 352 340 330 323 321 328 327 328 328 330 331 329 329 329 329 328 325 325 328 330 328 328 327
301 278 334 58 354 259 264 178 217 235 323 304 270 222 205 204 211 270 256 236 214 181 173 191 232 222 219 175 317 282 281 279 286 277 278 293 282 273 276 276 279 287 291 293 293 292 293 304 125 129 126 116 108 99 60 12 341 0 349 340 355 2 353 348 338 326 320 325 326 328 329 333 333 329 329 329 328 329 328 327 329 332 332 331 329 323
324 247 242 139 156 264 265 283 191 20 340 254 239 190 155 175 196 212 231 217 220 187 214 203 237 284 313 310 300 283 284 270 256 262 233 237 263 272 267 269 268 277 286 285 280 285 292 105 110 124 133 130 122 120 133 324 71 12 345 345 14 5 354 347 328 318 318 326 331 327 333 336 332 329 326 327 328 329 327 329 333 332 329 328 328 324
179 247 231 89 213 278 319 327 40 349 234 242 31 32 71 159 179 202 235 238 224 223 247 275 272 272 265 270 265 265 266 280 297 289 292 275 246 232 238 255 267 270 269 281 301 305 332 144 148 132 125 119 119 118 89 48 44 3 342 4 355 21 1 333 318 318 329 333 326 332 338 337 333 327 327 328 329 328 328 331 331 332 332 332 328 323
160 234 183 289 223 310 359 350 32 240 238 135 64 47 26 48 78 264 279 251 234 214 215 234 250 254 267 274 281 271 284 301 315 283 267 267 216 195 215 250 258 264 280 270 277 289 176 158 158 141 134 131 104 102 83 63 23 2 335 331 9 27 350 325 320 327 346 332 330 336 336 336 332 327 328 329 330 330 331 333 335 332 331 327 322 320
355 336 65 284 100 223 294 201 223 296 328 13 308 240 151 173 173 150 260 283 216 209 197 220 241 258 261 265 263 285 352 5 327 301 294 179 159 174 198 233 241 256 257 268 241 181 140 124 113 121 123 117 113 83 73 37 20 354 324 324 25 29 335 328 336 346 341 331 331 333 333 333 332 329 329 330 331 333 333 333 333 332 330 327 328 327
356 111 311 99 306 111 18 324 326 349 309 289 214 256 132 216 181 232 5 290 230 211 192 194 224 236 257 268 291 333 26 4 308 286 262 204 158 211 241 241 260 260 253 241 131 122 121 112 107 118 124 134 117 111 92 53 15 321 318 355 21 7 324 357 2 347 334 327 329 329 329 332 334 331 328 331 334 333 330 328 326 326 325 327 329 326
339 18 255 101 242 55 348 181 274 214 248 200 215 191 194 181 16 304 29 280 303 179 170 171 209 236 233 246 269 82 15 310 272 275 237 232 224 210 224 255 248 248 245 218 176 158 153 140 136 136 124 138 132 121 103 36 314 320 342 13 12 329 343 30 1 342 331 325 325 324 326 331 336 334 333 331 330 332 328 326 325 317 322 323 322 317
53 189 215 334 260 214 167 245 255 228 254 245 181 191 198 140 72 47 334 280 283 274 181 163 198 224 243 250 236 231 223 255 270 268 210 216 211 222 232 275 282 261 264 120 109 122 126 127 119 136 160 159 137 126 124 160 279 288 302 50 341 323 31 22 355 332 326 318 320 324 332 338 337 337 338 327 323 326 321 316 315 319 320 318 316 312
161 294 159 211 194 212 192 268 303 286 277 168 179 165 154 163 97 119 231 241 228 201 216 179 206 219 220 245 219 243 227 218 244 255 297 315 332 313 303 266 247 218 202 149 153 123 125 149 157 173 165 140 133 132 131 166 313 334 70 40 303 46 34 13 353 340 323 324 322 330 335 336 336 335 327 320 313 312 309 309 307 311 315 315 312 305
298 169 217 60 245 211 191 182 235 257 241 155 77 131 160 101 203 213 232 189 166 207 221 195 215 233 223 225 228 235 252 254 275 303 309 297 274 262 268 266 264 152 111 119 139 144 146 145 134 120 120 128 126 125 124 111 45 24 74 351 32 61 25 10 353 342 338 326 327 324 329 326 329 327 313 311 315 313 309 304 302 300 306 304 303 310
188 143 203 196 214 154 79 247 330 312 275 124 130 68 351 139 232 200 175 281 193 198 196 225 207 243 214 255 244 251 265 278 278 277 271 274 278 277 274 275 259 220 183 151 152 176 154 159 167 173 157 142 139 142 134 128 138 93 70 355 72 51 30 357 2 2 340 326 316 319 319 321 323 319 313 310 310 309 306 306 306 309 310 309 314 314
180 123 208 224 177 149 170 191 208 214 175 173 149 186 204 213 191 178 133 267 245 196 189 227 240 221 225 234 257 265 266 272 284 279 283 281 273 274 275 267 255 220 196 187 179 178 166 174 170 154 141 146 147 144 147 151 138 103 91 72 77 50 27 19 19 360 328 311 308 310 313 315 317 312 307 302 308 309 305 306 307 307 307 313 317 317
204 187 189 198 214 177 200 218 241 245 176 195 204 218 194 223 232 194 171 224 236 267 207 230 248 248 232 242 258 255 274 265 259 259 257 263 268 268 270 264 247 227 196 173 169 161 169 178 171 150 148 149 147 144 139 152 142 128 183 99 78 49 36 19 0 336 307 300 298 301 304 310 311 314 307 306 309 310 312 312 316 320 320 324 322 322
295 215 129 59 257 271 270 245 254 248 187 224 245 257 272 257 237 222 239 263 245 225 211 234 261 258 263 243 262 274 253 266 273 278 273 275 274 276 272 279 267 197 156 134 136 162 177 172 156 153 158 150 154 146 139 126 132 156 184 91 83 70 54 14 342 321 305 295 297 297 302 307 312 312 313 311 303 293 294 295 304 311 315 323 318 321
226 143 142 208 263 34 289 306 225 247 258 217 222 244 252 255 255 236 256 247 267 266 262 253 247 258 251 256 240 253 264 264 273 273 268 274 276 270 264 255 247 200 183 188 185 160 168 163 162 170 163 161 171 149 144 134 158 143 100 110 82 69 57 358 309 303 306 303 298 297 298 312 318 316 319 319 319 310 294 297 303 310 315 318 323 321
305 172 168 237 246 200 244 237 268 258 235 246 219 237 251 250 248 244 240 251 255 264 250 255 253 266 244 260 250 253 262 263 262 270 273 266 265 266 260 251 243 214 203 182 167 171 168 173 182 179 174 170 172 162 152 159 170 132 117 107 93 103 74 329 303 304 305 299 292 295 305 317 313 309 307 312 317 319 323 316 309 304 298 303 310 317
169 112 227 167 198 258 282 272 265 279 277 264 255 250 251 253 251 252 247 246 249 259 267 268 224 230 232 244 253 252 265 267 253 254 262 269 270 267 258 252 237 213 176 162 177 174 186 181 181 175 173 180 158 153 150 158 153 136 141 142 132 116 100 316 309 305 294 287 293 303 323 326 306 302 296 300 307 302 288 293 309 308 302 274 239 253
95 234 185 104 277 270 250 262 121 313 296 291 251 236 243 248 234 244 262 267 255 253 262 270 282 251 230 237 241 248 255 267 268 259 261 259 259 257 258 254 234 195 187 182 165 181 173 166 172 169 176 167 152 152 154 160 157 154 155 144 132 126 122 304 309 303 297 296 309 318 336 326 316 309 307 303 301 303 309 304 304 301 288 297 298 297
196 221 150 199 184 245 249 244 206 212 246 251 243 228 197 174 162 215 236 243 255 251 247 255 275 292 280 261 233 233 248 252 262 260 262 260 257 247 243 240 229 204 189 160 153 177 178 170 167 165 172 166 154 155 158 161 166 160 158 149 152 145 140 159 295 294 296 327 331 329 323 323 322 315 312 309 309 310 304 309 311 313 310 309 310 313